User: anonymous   Login
Location: Banksville Park
(38.5557°N, 75.1182°W)
Time: 11:38:48
(UTC+00:00)
Language:

Okean 2 Rocket - Orbit

View from above orbital plane
View from above orbital plane
View from above satellite
View from above satellite

Ground track
Ground track

The orbit data is extracted from the following two-line orbital elements,

1 20511U 90018B   21163.13770123  .00000085  00000-0  80785-5 0  9990
2 20511  82.5242  38.1499 0018050  23.0417  90.9082 14.80080620687412
Epoch (UTC): 12 June 2021 03:18:17
Eccentricity: 0.0018050
inclination: 82.5242°
perigee height: 616 km
apogee height: 642 km
right ascension of ascending node: 38.1499°
argument of perigee: 23.0417°
revolutions per day: 14.80080620
mean anomaly at epoch: 90.9082°
orbit number at epoch: 68741

The dashed part of the orbit path shows where the satellite is in the earth's shadow,  

DLR